[[{"header":{"parameterUnit":"m.s-1","parameterCategory":1,"la1":30.2991,"la2":30.254,"lo1":-89.0895,"lo2":-89.0444,"dy":0.0017,"dx":0.0017,"nx":28,"ny":28,"refTime":"2023-09-16T03:00:00:Z","depth":0,"parameterNumber":2,"parameterNumberName":"U-component_of_WINDS"},"data":[0,0,0,0,0,0,0,0,0,0,0,0,0,0,0,0,0,0,0,0,0,0,0,0,0,0,0,0,0,0,0,0,0,0,0,0,0,0,0,0,0,0,0,0,0,0,0,0,0,0,0,0,0,0,0,0,0,0,1.2911,1.2912,0,1.2938,1.2938,1.2939,1.2938,1.2938,1.2937,1.2937,1.2966,1.2967,1.2968,0,0,0,0,0,0,0,0,0,0,0,0,0,1.2863,1.2864,1.2911,1.2912,1.2912,1.2938,1.2938,1.2939,1.2938,1.2938,1.2937,1.2937,1.2966,1.2967,1.2968,0,0,0,0,0,0,0,0,0,0,0,0,0,1.2886,1.2864,1.2911,1.2915,1.2915,1.2938,1.2938,1.2939,1.2938,1.2938,1.2937,1.2937,1.2965,1.2967,1.2968,1.299,0,0,1.2974,1.2974,0,0,0,0,0,0,0,0,1.2885,1.2888,1.2914,1.2915,1.2915,1.2934,1.2932,1.2956,1.2938,1.293,1.2937,1.2936,1.2956,1.2958,1.2965,1.2991,1.2992,1.2974,1.2975,1.2975,1.2976,0,0,0,0,0,0,0,1.2883,1.2887,1.2922,1.2914,1.2915,1.2916,1.2919,1.2936,1.2946,1.293,1.293,1.2934,1.2956,1.2963,1.2965,1.2993,1.2974,1.2975,1.2976,1.2977,1.304,1.304,0,0,0,0,0,0,1.2881,1.2885,1.2921,1.2923,1.2898,1.2917,1.292,1.2929,1.2945,1.2947,1.2934,1.2933,1.296,1.2963,1.2966,1.2993,1.2975,1.2977,1.2978,1.3039,1.304,1.3041,0,0,0,0,0,0,1.288,1.2884,1.292,1.2904,1.2909,1.2919,1.2928,1.2929,1.2936,1.2948,1.295,1.2939,1.296,1.2964,1.2984,1.2994,1.2978,1.2979,1.3038,1.3039,1.304,1.3046,0,0,0,0,0,0,1.2878,1.2883,1.2891,1.2904,1.291,1.2936,1.2929,1.293,1.2939,1.2938,1.2953,1.2955,1.296,1.2982,1.2986,1.2996,1.298,1.3037,1.3039,1.304,1.3045,1.3047,1.3049,0,0,0,0,0,1.2876,1.2891,1.2891,1.2895,1.2919,1.2937,1.294,1.2945,1.294,1.2948,1.2956,1.2955,1.2992,1.2984,1.2988,1.2999,1.3037,1.3038,1.304,1.3044,1.3047,1.3049,0,0,0,0,0,0,1.2879,1.2893,1.2893,1.2912,1.2923,1.2937,1.2947,1.2947,1.296,1.2959,1.2965,1.2969,1.2989,1.2996,1.2986,1.3022,1.3014,1.3017,1.3016,1.3019,1.3021,1.3018,1.2982,0,0,0,0,0,1.2881,1.2894,1.2906,1.2922,1.2928,1.2937,1.2945,1.2947,1.2959,1.2964,1.2973,1.2986,1.3001,1.301,1.3024,1.3047,1.3051,1.3057,1.3059,1.306,1.3062,1.3076,1.308,1.3046,1.3046,1.3046,0,0,1.2887,1.2897,1.2904,1.2923,1.2932,1.2946,1.294,1.2955,1.2966,1.2967,1.2986,1.2994,1.3008,1.303,1.304,1.3036,1.3073,1.3062,1.3063,1.3065,1.3078,1.3082,1.3084,1.3047,1.3046,1.3046,0,0,1.2905,1.2913,1.2928,1.2937,1.2951,1.2957,1.296,1.2974,1.2979,1.2999,1.3,1.3014,1.3038,1.3049,1.3058,1.3082,1.3082,1.3086,1.3097,1.311,1.3113,1.3115,1.3125,1.3128,1.3088,1.3088,1.3088,0,1.291,1.2931,1.2935,1.2951,1.296,1.2961,1.2977,1.2986,1.3004,1.301,1.3006,1.3039,1.3048,1.3073,1.3079,1.3086,1.3091,1.3084,1.3112,1.3114,1.3117,1.3126,1.313,1.3089,1.3089,1.3089,1.3089,0,1.2937,1.2952,1.2962,1.298,1.299,1.3005,1.3014,1.3024,1.3026,1.3033,1.3054,1.3066,1.3083,1.309,1.3092,1.3116,1.3113,1.3111,1.3103,1.312,1.3129,1.3133,1.3089,1.3089,1.3089,1.3089,0,0,1.2956,1.2977,1.2981,1.2989,1.3005,1.3017,1.3033,1.305,1.3059,1.3072,1.3087,1.3109,1.3107,1.3117,1.3121,1.3133,1.3152,1.3129,1.3129,1.3133,1.3181,1.3183,1.3187,1.3153,1.3154,1.3154,1.318,0,1.2976,1.3004,1.301,1.3035,1.3049,1.3052,1.3066,1.3078,1.3086,1.31,1.3108,1.3124,1.312,1.3126,1.3138,1.3147,1.3162,1.3146,1.3168,1.3168,1.3164,1.3191,1.3193,1.3216,1.3183,1.3184,1.3184,0,1.3002,1.3016,1.3042,1.3058,1.3064,1.3077,1.3094,1.3107,1.3121,1.3126,1.3138,1.3141,1.316,1.3152,1.3179,1.3167,1.3177,1.3183,1.3184,1.3187,1.3177,1.3195,1.3224,1.3228,1.3189,1.3189,1.3189,0,1.3014,1.3039,1.3059,1.3066,1.3084,1.3094,1.3102,1.3116,1.3126,1.3141,1.3148,1.3165,1.3175,1.3189,1.3197,1.319,1.3224,1.3216,1.3229,1.3229,1.3236,1.3235,1.3267,1.3241,1.3241,1.3241,1.3241,0,1.3036,1.3052,1.3064,1.3076,1.3095,1.3102,1.3121,1.313,1.3143,1.3157,1.3161,1.3175,1.3185,1.32,1.3207,1.3229,1.3233,1.3238,1.324,1.3238,1.3238,1.3244,1.3243,1.3242,1.3242,1.3242,1.3242,0,1.3052,1.3061,1.3082,1.3098,1.3103,1.3116,1.3131,1.3143,1.3151,1.317,1.3175,1.3188,1.3206,1.3216,1.324,1.3245,1.3269,1.327,1.3264,1.3265,1.3278,1.3277,1.3316,1.3322,1.3291,1.3292,1.3292,0,1.3065,1.3078,1.3096,1.3106,1.3114,1.313,1.3141,1.3149,1.316,1.3179,1.319,1.3209,1.3224,1.3255,1.3267,1.3285,1.3287,1.3299,1.3289,1.3288,1.3288,1.3287,1.3289,1.3301,1.3301,1.3301,1.3301,0,1.3088,1.3092,1.3107,1.3124,1.3137,1.3151,1.3164,1.3173,1.3184,1.3196,1.3215,1.3228,1.3252,1.3272,1.3292,1.3301,1.3304,1.3305,1.3309,1.3307,1.3303,1.3306,1.3269,1.3303,1.3303,1.3303,1.3303,1.3303,1.3104,1.3116,1.313,1.3147,1.3159,1.3172,1.3185,1.3195,1.3211,1.3231,1.3236,1.3256,1.3273,1.33,1.331,1.3328,1.3325,1.3331,1.3332,1.3334,1.3335,1.3301,1.3331,1.3331,1.3331,1.3331,1.3331,0,1.3127,1.3137,1.3153,1.3172,1.3186,1.3187,1.3203,1.3215,1.3233,1.3247,1.3263,1.3286,1.3306,1.332,1.334,1.3351,1.3353,1.3356,1.3356,1.3358,1.3335,1.333,1.3355,1.3355,1.3355,1.3355,1.3355,1.3355,1.3141,1.3162,1.3168,1.3195,1.3205,1.3225,1.3234,1.3247,1.3259,1.3285,1.3301,1.331,1.3325,1.3347,1.3365,1.3369,1.3376,1.338,1.3384,1.3362,1.336,1.3357,1.3352,1.3381,1.3381,1.3405,1.3405,1.3406]},{"header":{"parameterUnit":"m.s-1","parameterCategory":1,"la1":30.2991,"la2":30.254,"lo1":-89.0895,"lo2":-89.0444,"dy":0.0017,"dx":0.0017,"nx":28,"ny":28,"refTime":"2023-09-16T03:00:00:Z","depth":0,"parameterNumber":3,"parameterNumberName":"V-component_of_WINDS"},"data":[0,0,0,0,0,0,0,0,0,0,0,0,0,0,0,0,0,0,0,0,0,0,0,0,0,0,0,0,0,0,0,0,0,0,0,0,0,0,0,0,0,0,0,0,0,0,0,0,0,0,0,0,0,0,0,0,0,0,-3.866,-3.866,0,-3.8705,-3.8705,-3.8706,-3.8739,-3.8739,-3.8739,-3.8739,-3.8783,-3.8783,-3.8784,0,0,0,0,0,0,0,0,0,0,0,0,0,-3.8602,-3.8603,-3.866,-3.866,-3.8661,-3.8705,-3.8705,-3.8706,-3.8739,-3.8739,-3.8739,-3.874,-3.8782,-3.8783,-3.8784,0,0,0,0,0,0,0,0,0,0,0,0,0,-3.8635,-3.8604,-3.866,-3.8683,-3.8685,-3.8704,-3.8705,-3.8706,-3.8738,-3.8739,-3.8739,-3.874,-3.8782,-3.8783,-3.8784,-3.8784,0,0,-3.8788,-3.8789,0,0,0,0,0,0,0,0,-3.8633,-3.8637,-3.8679,-3.8681,-3.8684,-3.8717,-3.8701,-3.8732,-3.8738,-3.8718,-3.8739,-3.874,-3.876,-3.8763,-3.877,-3.8786,-3.8788,-3.8789,-3.8789,-3.879,-3.879,0,0,0,0,0,0,0,-3.8631,-3.8636,-3.8677,-3.8679,-3.8683,-3.8691,-3.8696,-3.8707,-3.8736,-3.872,-3.8722,-3.8727,-3.8762,-3.8769,-3.8772,-3.8788,-3.8789,-3.879,-3.8791,-3.8791,-3.8807,-3.8807,0,0,0,0,0,0,-3.8625,-3.8633,-3.8676,-3.8679,-3.8659,-3.8691,-3.8697,-3.8706,-3.8736,-3.8741,-3.8727,-3.8729,-3.8767,-3.877,-3.8773,-3.8776,-3.879,-3.8791,-3.8792,-3.8808,-3.8807,-3.8807,0,0,0,0,0,0,-3.8624,-3.8629,-3.8674,-3.8657,-3.8663,-3.8692,-3.8701,-3.8706,-3.8714,-3.8741,-3.8747,-3.8729,-3.8767,-3.8772,-3.8782,-3.8778,-3.8792,-3.8793,-3.8808,-3.8808,-3.8807,-3.8779,0,0,0,0,0,0,-3.8622,-3.8628,-3.8628,-3.8657,-3.8664,-3.8682,-3.8701,-3.8707,-3.8716,-3.8719,-3.8745,-3.875,-3.8768,-3.8779,-3.8783,-3.878,-3.8794,-3.8809,-3.8808,-3.8807,-3.8781,-3.8778,-3.8776,0,0,0,0,0,-3.862,-3.8617,-3.8628,-3.8633,-3.8665,-3.8681,-3.8686,-3.8707,-3.8716,-3.8716,-3.8734,-3.8749,-3.8778,-3.878,-3.8784,-3.8781,-3.8809,-3.8808,-3.8807,-3.8782,-3.8778,-3.8776,0,0,0,0,0,0,-3.8586,-3.8621,-3.8633,-3.864,-3.8658,-3.8687,-3.8688,-3.8703,-3.8717,-3.8719,-3.8745,-3.8751,-3.8758,-3.8771,-3.8773,-3.8783,-3.8795,-3.8795,-3.8775,-3.8772,-3.8769,-3.8765,-3.8795,0,0,0,0,0,-3.8579,-3.859,-3.8621,-3.8624,-3.8632,-3.8658,-3.8666,-3.8682,-3.8701,-3.8708,-3.8727,-3.8744,-3.8758,-3.8765,-3.8779,-3.8783,-3.879,-3.8784,-3.8781,-3.8779,-3.8778,-3.8783,-3.8781,-3.8804,-3.8804,-3.8804,0,0,-3.8565,-3.8586,-3.8591,-3.8617,-3.8633,-3.8644,-3.8664,-3.8674,-3.8683,-3.8709,-3.872,-3.8735,-3.8756,-3.8764,-3.8768,-3.8775,-3.8774,-3.8778,-3.8776,-3.8776,-3.8782,-3.878,-3.8778,-3.8804,-3.8804,-3.8804,0,0,-3.8545,-3.8562,-3.8567,-3.8583,-3.8607,-3.8625,-3.8626,-3.8654,-3.8665,-3.8677,-3.8698,-3.8709,-3.873,-3.8745,-3.8756,-3.8745,-3.8759,-3.8749,-3.8735,-3.8739,-3.8737,-3.8736,-3.8733,-3.8731,-3.8748,-3.8748,-3.8748,0,-3.8524,-3.8542,-3.8567,-3.8577,-3.8589,-3.8615,-3.8621,-3.8635,-3.8662,-3.8669,-3.8676,-3.8706,-3.8722,-3.8734,-3.8732,-3.8739,-3.8742,-3.8745,-3.8736,-3.8734,-3.8733,-3.8731,-3.8729,-3.8747,-3.8747,-3.8747,-3.8747,0,-3.8516,-3.8528,-3.8529,-3.8556,-3.8568,-3.8575,-3.8602,-3.8611,-3.8627,-3.8644,-3.8657,-3.8677,-3.8697,-3.8701,-3.8715,-3.8716,-3.8719,-3.8731,-3.8743,-3.8729,-3.8727,-3.8726,-3.8745,-3.8745,-3.8746,-3.8746,0,0,-3.8472,-3.8516,-3.8516,-3.853,-3.856,-3.857,-3.8579,-3.8599,-3.8607,-3.8625,-3.8634,-3.8653,-3.8665,-3.8677,-3.8694,-3.8698,-3.8689,-3.8709,-3.871,-3.8705,-3.8692,-3.8683,-3.8682,-3.87,-3.8699,-3.8699,-3.8691,0,-3.8457,-3.8477,-3.8501,-3.8512,-3.8524,-3.8552,-3.856,-3.858,-3.8597,-3.861,-3.8629,-3.8642,-3.8656,-3.8664,-3.8669,-3.8689,-3.8687,-3.869,-3.8708,-3.8708,-3.8701,-3.868,-3.867,-3.8661,-3.869,-3.869,-3.869,0,-3.8441,-3.846,-3.8473,-3.8504,-3.851,-3.8517,-3.8539,-3.8551,-3.8574,-3.8587,-3.8602,-3.862,-3.8632,-3.8644,-3.8661,-3.8663,-3.8672,-3.8683,-3.8683,-3.8685,-3.8697,-3.8682,-3.8658,-3.8657,-3.8689,-3.8689,-3.8689,0,-3.8409,-3.8438,-3.845,-3.846,-3.8497,-3.8502,-3.8517,-3.8541,-3.8552,-3.8571,-3.8579,-3.8599,-3.8609,-3.8624,-3.8648,-3.8654,-3.8663,-3.8676,-3.8674,-3.8673,-3.8673,-3.8673,-3.8651,-3.868,-3.868,-3.868,-3.868,0,-3.8389,-3.8396,-3.8436,-3.8443,-3.8452,-3.8481,-3.8489,-3.8507,-3.8528,-3.8539,-3.8564,-3.8574,-3.8605,-3.8619,-3.8638,-3.865,-3.8654,-3.8664,-3.8669,-3.8662,-3.8661,-3.8667,-3.8669,-3.8679,-3.8679,-3.8679,-3.8679,0,-3.8354,-3.8381,-3.8396,-3.8431,-3.844,-3.8445,-3.8474,-3.8483,-3.8503,-3.8517,-3.8522,-3.8553,-3.857,-3.8596,-3.8621,-3.8634,-3.8643,-3.8651,-3.8635,-3.8638,-3.8634,-3.8634,-3.8616,-3.8615,-3.8644,-3.8644,-3.8643,0,-3.8339,-3.8345,-3.8381,-3.8392,-3.8407,-3.8422,-3.8435,-3.8464,-3.8476,-3.8505,-3.851,-3.853,-3.8547,-3.8575,-3.8599,-3.8619,-3.8627,-3.862,-3.863,-3.8624,-3.8628,-3.8627,-3.8628,-3.8617,-3.8616,-3.8616,-3.8615,0,-3.8309,-3.8324,-3.8341,-3.8364,-3.8379,-3.8398,-3.8419,-3.8425,-3.8459,-3.8472,-3.8491,-3.8505,-3.8532,-3.8552,-3.8576,-3.8591,-3.8609,-3.8612,-3.8613,-3.8605,-3.8596,-3.8601,-3.8628,-3.8612,-3.8613,-3.8613,-3.8613,-3.8613,-3.8284,-3.8292,-3.8319,-3.8339,-3.8358,-3.8377,-3.8387,-3.841,-3.8427,-3.8452,-3.8468,-3.8487,-3.8512,-3.8547,-3.8562,-3.8577,-3.8584,-3.8584,-3.8585,-3.8584,-3.8582,-3.8594,-3.8581,-3.8581,-3.8582,-3.8582,-3.8582,0,-3.8256,-3.8276,-3.8294,-3.8323,-3.8339,-3.8356,-3.8381,-3.8392,-3.8409,-3.8432,-3.8449,-3.8473,-3.8493,-3.852,-3.8542,-3.8549,-3.8558,-3.8554,-3.8553,-3.8557,-3.8574,-3.8571,-3.8547,-3.8547,-3.8547,-3.8547,-3.8547,-3.8547,-3.8244,-3.8258,-3.8276,-3.83,-3.832,-3.834,-3.8352,-3.837,-3.8389,-3.8414,-3.8432,-3.845,-3.8475,-3.85,-3.852,-3.8527,-3.8534,-3.8528,-3.8537,-3.8552,-3.8556,-3.8559,-3.8556,-3.8529,-3.8529,-3.8519,-3.8519,-3.8519]}]]